When you browse on this site, cookies collect data to enhance your experience and personalize the content and advertising you see.
Visit our Privacy Policy to learn more. By continuing to use the site, you agree to this use of cookies and data.

Hourly Weather Monterey

Today, 13 July, Monday

Time Temperature Precipitation Wind Pressure Humidity
00:00 +16°C° 0 mm 2 mps 752 mmHg 73%
01:00 +16°C° 0 mm 2 mps 752 mmHg 73%
02:00 +16°C° 0 mm 2 mps 752 mmHg 75%
03:00 +16°C° 0 mm 2 mps 752 mmHg 78%
04:00 +15°C° 0 mm 2 mps 752 mmHg 80%
05:00 +16°C° 0 mm 3 mps 752 mmHg 77%
06:00 +18°C° 0 mm 3 mps 752 mmHg 74%
07:00 +19°C° 0 mm 3 mps 753 mmHg 70%
08:00 +20°C° 0 mm 3 mps 753 mmHg 65%
09:00 +22°C° 0 mm 3 mps 753 mmHg 60%
10:00 +23°C° 0 mm 4 mps 753 mmHg 55%
11:00 +23°C° 0 mm 4 mps 753 mmHg 54%
12:00 +25°C° 0 mm 4 mps 753 mmHg 53%
13:00 +25°C° 0 mm 4 mps 753 mmHg 52%
14:00 +23°C° 0 mm 4 mps 753 mmHg 55%
15:00 +22°C° 0 mm 4 mps 752 mmHg 58%
16:00 +21°C° 0 mm 4 mps 752 mmHg 62%
17:00 +20°C° 0 mm 4 mps 752 mmHg 70%
18:00 +18°C° 0 mm 3 mps 752 mmHg 77%
19:00 +16°C° 0 mm 3 mps 752 mmHg 85%
20:00 +14°C° 0 mm 3 mps 753 mmHg 86%
21:00 +14°C° 0 mm 3 mps 753 mmHg 88%
22:00 +14°C° 0 mm 2 mps 753 mmHg 89%
23:00 +14°C° 0 mm 2 mps 753 mmHg 88%

Tomorrow, 14 July, Tuesday

Time Temperature Precipitation Wind Pressure Humidity
00:00 +14°C° 0 mm 2 mps 753 mmHg 87%
01:00 +14°C° 0 mm 2 mps 753 mmHg 86%
02:00 +14°C° 0 mm 2 mps 753 mmHg 86%
03:00 +13°C° 0 mm 1 mps 753 mmHg 86%
04:00 +13°C° 0 mm 1 mps 753 mmHg 86%
05:00 +14°C° 0 mm 1 mps 753 mmHg 81%
06:00 +15°C° 0 mm 2 mps 753 mmHg 77%
07:00 +17°C° 0 mm 2 mps 753 mmHg 72%
08:00 +19°C° 0 mm 2 mps 754 mmHg 66%
09:00 +20°C° 0 mm 2 mps 754 mmHg 59%
10:00 +22°C° 0 mm 3 mps 754 mmHg 53%
11:00 +24°C° 0 mm 3 mps 753 mmHg 53%
12:00 +24°C° 0 mm 3 mps 753 mmHg 53%
13:00 +25°C° 0 mm 4 mps 753 mmHg 53%
14:00 +23°C° 0 mm 4 mps 753 mmHg 55%
15:00 +22°C° 0 mm 4 mps 752 mmHg 58%
16:00 +22°C° 0 mm 4 mps 752 mmHg 60%
17:00 +20°C° 0 mm 3 mps 752 mmHg 69%
18:00 +18°C° 0 mm 3 mps 752 mmHg 77%
19:00 +16°C° 0 mm 2 mps 752 mmHg 86%
20:00 +15°C° 0 mm 2 mps 752 mmHg 88%
21:00 +14°C° 0 mm 2 mps 753 mmHg 91%
22:00 +14°C° 0 mm 2 mps 753 mmHg 93%
23:00 +14°C° 0 mm 2 mps 753 mmHg 93%

Day after tomorrow, 15 July, Wednesday

Time Temperature Precipitation Wind Pressure Humidity
00:00 +13°C° 0 mm 1 mps 752 mmHg 93%
01:00 +13°C° 0 mm 1 mps 752 mmHg 93%
02:00 +13°C° 0 mm 1 mps 752 mmHg 92%
03:00 +13°C° 0 mm 2 mps 752 mmHg 91%
04:00 +13°C° 0 mm 2 mps 752 mmHg 91%
05:00 +15°C° 0 mm 2 mps 752 mmHg 84%
06:00 +16°C° 0 mm 2 mps 752 mmHg 78%
07:00 +18°C° 0 mm 2 mps 753 mmHg 72%
08:00 +20°C° 0 mm 2 mps 753 mmHg 66%
09:00 +21°C° 0 mm 3 mps 753 mmHg 60%
10:00 +23°C° 0 mm 4 mps 753 mmHg 53%
11:00 +23°C° 0 mm 4 mps 752 mmHg 54%
12:00 +25°C° 0 mm 4 mps 752 mmHg 54%
13:00 +25°C° 0 mm 5 mps 752 mmHg 54%
14:00 +23°C° 0 mm 5 mps 751 mmHg 56%
15:00 +23°C° 0 mm 5 mps 751 mmHg 58%
16:00 +22°C° 0 mm 5 mps 751 mmHg 60%
17:00 +20°C° 0 mm 4 mps 751 mmHg 68%
18:00 +18°C° 0 mm 3 mps 751 mmHg 76%
19:00 +16°C° 0 mm 3 mps 751 mmHg 84%
20:00 +16°C° 0 mm 2 mps 751 mmHg 87%
21:00 +15°C° 0 mm 2 mps 752 mmHg 89%
22:00 +14°C° 0 mm 1 mps 752 mmHg 92%
23:00 +14°C° 0 mm 1 mps 752 mmHg 91%

16 July, Thursday

Time Temperature Precipitation Wind Pressure Humidity
00:00 +14°C° 0 mm 1 mps 751 mmHg 90%
01:00 +14°C° 0 mm 1 mps 751 mmHg 89%
02:00 +14°C° 0 mm 1 mps 751 mmHg 86%
03:00 +14°C° 0 mm 1 mps 751 mmHg 84%
04:00 +14°C° 0 mm 1 mps 751 mmHg 82%
05:00 +16°C° 0 mm 1 mps 752 mmHg 75%
06:00 +19°C° 0 mm 1 mps 752 mmHg 67%
07:00 +21°C° 0 mm 1 mps 752 mmHg 60%
08:00 +23°C° 0 mm 2 mps 752 mmHg 55%
09:00 +25°C° 0 mm 2 mps 752 mmHg 50%
10:00 +27°C° 0 mm 3 mps 753 mmHg 45%
11:00 +26°C° 0 mm 4 mps 752 mmHg 47%
12:00 +26°C° 0 mm 4 mps 752 mmHg 50%
13:00 +26°C° 0 mm 4 mps 752 mmHg 52%
14:00 +25°C° 0 mm 4 mps 752 mmHg 55%
15:00 +23°C° 0 mm 4 mps 752 mmHg 58%
16:00 +23°C° 0 mm 4 mps 751 mmHg 61%
17:00 +21°C° 0 mm 3 mps 752 mmHg 69%
18:00 +19°C° 0 mm 2 mps 752 mmHg 77%
19:00 +18°C° 0 mm 1 mps 752 mmHg 85%
20:00 +16°C° 0 mm 1 mps 752 mmHg 87%
21:00 +16°C° 0 mm 1 mps 753 mmHg 88%
22:00 +14°C° 0 mm 0 mps 753 mmHg 90%
23:00 +14°C° 0 mm 0 mps 753 mmHg 89%

17 July, Friday

Time Temperature Precipitation Wind Pressure Humidity
00:00 +14°C° 0 mm 0 mps 753 mmHg 88%
01:00 +14°C° 0 mm 0 mps 752 mmHg 88%
02:00 +14°C° 0 mm 0 mps 753 mmHg 87%
03:00 +14°C° 0 mm 0 mps 753 mmHg 86%
04:00 +14°C° 0 mm 0 mps 753 mmHg 86%
05:00 +16°C° 0 mm 0 mps 753 mmHg 78%
06:00 +17°C° 0 mm 0 mps 754 mmHg 71%
07:00 +19°C° 0 mm 0 mps 754 mmHg 63%
08:00 +23°C° 0 mm 1 mps 754 mmHg 58%
09:00 +25°C° 0 mm 2 mps 754 mmHg 53%
10:00 +27°C° 0 mm 2 mps 754 mmHg 48%
11:00 +27°C° 0 mm 3 mps 754 mmHg 48%
12:00 +27°C° 0 mm 3 mps 754 mmHg 48%
13:00 +27°C° 0 mm 3 mps 753 mmHg 48%
14:00 +27°C° 0 mm 3 mps 753 mmHg 50%
15:00 +26°C° 0 mm 3 mps 753 mmHg 52%
16:00 +25°C° 0 mm 3 mps 753 mmHg 54%
17:00 +23°C° 0 mm 2 mps 753 mmHg 63%
18:00 +20°C° 0 mm 2 mps 753 mmHg 71%
19:00 +19°C° 0 mm 1 mps 753 mmHg 80%
20:00 +18°C° 0 mm 1 mps 753 mmHg 82%
21:00 +16°C° 0 mm 1 mps 753 mmHg 84%
22:00 +14°C° 0 mm 0 mps 754 mmHg 86%
23:00 +14°C° 0 mm 0 mps 754 mmHg 84%

18 July, Saturday

Time Temperature Precipitation Wind Pressure Humidity
00:00 +15°C° 0 mm 1 mps 754 mmHg 83%
01:00 +15°C° 0 mm 1 mps 753 mmHg 81%
02:00 +15°C° 0 mm 1 mps 753 mmHg 81%
03:00 +15°C° 0 mm 1 mps 753 mmHg 81%
04:00 +15°C° 0 mm 1 mps 754 mmHg 80%
05:00 +18°C° 0 mm 1 mps 754 mmHg 74%
06:00 +19°C° 0 mm 1 mps 754 mmHg 68%
07:00 +21°C° 0 mm 1 mps 754 mmHg 62%
08:00 +23°C° 0 mm 2 mps 754 mmHg 57%
09:00 +24°C° 0 mm 2 mps 755 mmHg 53%
10:00 +26°C° 0 mm 3 mps 755 mmHg 48%
11:00 +26°C° 0 mm 3 mps 754 mmHg 49%
12:00 +26°C° 0 mm 4 mps 754 mmHg 51%
13:00 +26°C° 0 mm 4 mps 754 mmHg 52%
14:00 +25°C° 0 mm 4 mps 754 mmHg 55%
15:00 +23°C° 0 mm 4 mps 753 mmHg 58%
16:00 +22°C° 0 mm 4 mps 753 mmHg 61%
17:00 +20°C° 0 mm 3 mps 753 mmHg 70%
18:00 +18°C° 0 mm 3 mps 753 mmHg 79%
19:00 +16°C° 0 mm 2 mps 753 mmHg 88%
20:00 +15°C° 0 mm 2 mps 754 mmHg 88%
21:00 +14°C° 0 mm 1 mps 754 mmHg 89%
22:00 +14°C° 0 mm 1 mps 754 mmHg 90%
23:00 +13°C° 0 mm 1 mps 754 mmHg 89%
Show more